Flag for Portugal Weather past 2 weeks in Ponta Delgada, Azores, Portugal

Now
61 °F

Partly sunny.


Feels Like: 61 °F
Forecast: 60 / 63 °F
Wind: 8 mph from South

Location: Ponta Delgada / Nordela Acores

Current Time: Dec 18, 2014 at 10:14:06 AM

Latest Report: Dec 18, 2014 at 9:30 AM


Visibility: N/A

Pressure: 30.48 "Hg

Humidity: 83%

Dew point: 55 °F

Location of Ponta DelgadaLocation

Historic Weather in Ponta Delgada — Graph

°F

Ponta Delgada temperature yesterday

Maximum temperature yesterday: 63 °F (at 2:00 PM)
Minimum temperature yesterday: 57 °F (at 12:00 AM)
Average temperature yesterday: 59 °F

Past Weeks' High & Low Weather Summary

 TemperatureHumidityPressure
High63 °F (Dec 9, 12:30 PM)94% (Dec 11, 2:30 AM)30.72 "Hg (Dec 11, 2:30 AM)
Low52 °F (Dec 6, 12:00 AM)45% (Dec 6, 11:30 AM)30.21 "Hg (Dec 12, 12:30 PM)
Average56 °F72%30.54 "Hg
* Reported Dec 3 9:00 AM — Dec 18 9:00 AM, Ponta Delgada, Weather by CustomWeather, © 2014

Note: Actual official high and low records may vary slightly from our data, if they occured in-between our weather recording intervals... More about our weather records

Advertising

Ponta Delgada weather history for previous 24 hours

 ConditionsComfort  
Time TempWeatherWind HumidityBarometerVisibility
9:00 AM
Dec 18
61 °FPartly sunny.12 mph83%30.45 "HgN/A
8:30 AM61 °FPartly sunny.7 mph77%30.45 "HgN/A
8:00 AM61 °FPartly sunny.12 mph77%30.45 "HgN/A
7:30 AM61 °FPassing clouds.9 mph72%30.45 "HgN/A
7:00 AM61 °FPassing clouds.10 mph72%30.42 "HgN/A
6:30 AM61 °FPassing clouds.9 mph72%30.42 "HgN/A
6:00 AM61 °FPassing clouds.9 mph72%30.42 "HgN/A
5:30 AM61 °FPassing clouds.8 mph77%30.42 "HgN/A
5:00 AM61 °FPassing clouds.8 mph72%30.42 "HgN/A
4:30 AM61 °FPassing clouds.7 mph72%30.42 "HgN/A
4:00 AM61 °FPassing clouds.12 mph68%30.42 "HgN/A
3:30 AM61 °FPassing clouds.10 mph68%30.42 "HgN/A
3:00 AM61 °FPassing clouds.10 mph72%30.42 "HgN/A
2:00 AM61 °FPassing clouds.9 mph72%30.45 "HgN/A
1:30 AM61 °FPassing clouds.10 mph72%30.45 "HgN/A
1:00 AM61 °FPassing clouds.8 mph68%30.45 "HgN/A
12:30 AM61 °FPassing clouds.9 mph63%30.48 "HgN/A
12:00 AM61 °FPassing clouds.13 mph63%30.48 "HgN/A
11:30 PM
Dec 17
61 °FPassing clouds.9 mph68%30.48 "HgN/A
11:00 PM61 °FPassing clouds.10 mph68%30.48 "HgN/A
10:30 PM61 °FPassing clouds.9 mph72%30.48 "HgN/A
10:00 PM61 °FPassing clouds.8 mph77%30.48 "HgN/A
9:30 PM61 °FPassing clouds.10 mph72%30.48 "HgN/A
9:00 PM61 °FPassing clouds.12 mph77%30.48 "HgN/A
8:30 PM61 °FPassing clouds.9 mph72%30.48 "HgN/A
8:00 PM61 °FPassing clouds.13 mph72%30.48 "HgN/A
7:30 PM59 °FPassing clouds.10 mph82%30.48 "HgN/A
7:00 PM59 °FPassing clouds.12 mph82%30.48 "HgN/A
6:30 PM59 °FPassing clouds.12 mph82%30.48 "HgN/A
6:00 PM59 °FPassing clouds.12 mph82%30.48 "HgN/A
5:30 PM59 °FPassing clouds.13 mph82%30.48 "HgN/A
5:00 PM59 °FPartly sunny.12 mph77%30.48 "HgN/A
4:30 PM61 °FPartly sunny.12 mph72%30.48 "HgN/A
4:00 PM61 °FScattered clouds.10 mph72%30.48 "HgN/A
3:30 PM61 °FPassing clouds.12 mph72%30.48 "HgN/A
3:00 PM61 °FPassing clouds.10 mph77%30.48 "HgN/A
2:30 PM61 °FPassing clouds.12 mph77%30.48 "HgN/A
2:00 PM63 °FPassing clouds.9 mph68%30.48 "HgN/A
1:30 PM61 °FScattered clouds.10 mph72%30.51 "HgN/A
1:00 PM61 °FScattered clouds.9 mph72%30.51 "HgN/A
12:30 PM61 °FScattered clouds.9 mph72%30.54 "HgN/A
12:00 PM61 °FPartly sunny.8 mph72%30.54 "HgN/A
11:30 AM61 °FPartly sunny.8 mph72%30.57 "HgN/A
11:00 AM61 °FPartly sunny.8 mph68%30.57 "HgN/A
10:30 AM61 °FPartly sunny.8 mph68%30.57 "HgN/A
10:00 AM59 °FPartly sunny.9 mph72%30.57 "HgN/A
Weather by CustomWeather, © 2014

See weather overviewHow to use our weather pages